Flag for Fiji Weather past 2 weeks in Lautoka, Fiji

Now
72 °F

Partly cloudy.


Feels Like: 71 °F
Forecast: 74 / 77 °F
Wind: 10 mph from South

Location: Nandi

Current Time: Jul 22, 2014 at 7:58:51 PM

Latest Report: Jul 22, 2014 at 7:00 PM


Visibility: N/A

Pressure: 29.83 "Hg

Humidity: 83%

Dew point: 66 °F

Location of LautokaLocation

Historic Weather in Lautoka — Graph

°F

Lautoka temperature yesterday

Maximum temperature yesterday: 82 °F (at 11:00 AM)
Minimum temperature yesterday: 68 °F (at 12:00 AM)
Average temperature yesterday: 75 °F

Past Weeks' High & Low Weather Summary

 TemperatureHumidityPressure
High86 °F (Jul 10, 2:00 PM)100% (Jul 9, 4:00 AM)29.98 "Hg (Jul 9, 4:00 AM)
Low59 °F (Jul 12, 6:00 AM)48% (Jul 12, 3:00 PM)29.77 "Hg (Jul 8, 3:00 PM)
Average72 °F79%29.88 "Hg
* Reported Jul 7 7:00 PM — Jul 22 7:00 PM, Lautoka, Weather by CustomWeather, © 2014

Note: Actual official high and low records may vary slightly from our data, if they occured in-between our weather recording intervals... More about our weather records

Advertising

Lautoka weather history for previous 24 hours

 ConditionsComfort  
Time TempWeatherWind HumidityBarometerVisibility
7:00 PM
Jul 22
72 °FPartly cloudy.10 mph83%29.83 "HgN/A
6:00 PM73 °FPartly cloudy.8 mph78%29.80 "HgN/A
5:00 PM73 °FBroken clouds.10 mph78%29.80 "HgN/A
4:00 PM75 °FBroken clouds.9 mph69%29.77 "HgN/A
3:00 PM75 °FBroken clouds.8 mph74%29.80 "HgN/A
2:00 PM77 °FBroken clouds.9 mph69%29.80 "HgN/A
1:00 PM77 °FBroken clouds.8 mph69%29.83 "HgN/A
12:00 PM77 °FBroken clouds.5 mph74%29.86 "HgN/A
11:00 AM75 °FBroken clouds.5 mph83%29.89 "HgN/A
10:00 AM72 °FBroken clouds.6 mph94%29.92 "HgN/A
9:00 AM72 °FBroken clouds.5 mph94%29.92 "HgN/A
8:00 AM70 °FBroken clouds.3 mph94%29.89 "HgN/A
7:00 AM70 °FLight rain. Broken clouds.3 mph94%29.89 "HgN/A
6:00 AM70 °FLight rain. Partly cloudy.6 mph100%29.86 "HgN/A
5:00 AM72 °FLight rain. Partly cloudy.6 mph88%29.86 "HgN/A
4:00 AM72 °FPassing clouds.3 mph88%29.86 "HgN/A
3:00 AM70 °FPassing clouds.3 mph94%29.86 "HgN/A
2:00 AM72 °FPassing clouds.3 mph83%29.86 "HgN/A
1:00 AM70 °FPassing clouds.3 mph94%29.89 "HgN/A
12:00 AM72 °FPassing clouds.3 mph88%29.89 "HgN/A
11:00 PM
Jul 21
72 °FPassing clouds.3 mph88%29.89 "HgN/A
10:00 PM73 °FPassing clouds.5 mph83%29.89 "HgN/A
9:00 PM73 °FPassing clouds.3 mph83%29.89 "HgN/A
8:00 PM73 °FPassing clouds.6 mph83%29.89 "HgN/A
7:00 PM75 °FPassing clouds.9 mph78%29.86 "HgN/A
Weather by CustomWeather, © 2014

See weather overviewHow to use our weather pages